Location: Góry Miechowskie
(50.3599°N, 20.1803°E)
Time: 12:18:27
(UTC+00:00)

SL-4 R/B - Pass Details

Date: 15 June 2024
Orbit: 411 x 597 km, 51.6° (Epoch: 15 July)

Event Time Altitude Azimuth Distance (km) Brightness Sun altitude
Rises 00:19:42 0° 281° (WNW) 2,714 5.4 -13.1°
Reaches altitude 10° 00:22:54 10° 255° (WSW) 1,857 4.3 -12.9°
Enters shadow 00:23:27 11° 248° (WSW) 1,771 4.2 -12.8°
